Torna al catalogo

SL-16 DEB

AttivoLEO
NORAD 22545·DEBRIS·🇷🇺 Russia

Lanciato Dec 25, 1992 da Baikonur Cosmodrome

Loading…

Prossimi Passaggi (prossime 24 ore)

TLE

AggiornatoSource: Space-Track

Epoca: Sep 13, 2026, 05:39 UTC

1 22545U 92093HF  26256.23551597  .00000218  00000-0  26557-3 0  9998
2 22545  71.5631 339.5327 0383647  99.6171 264.8474 13.46808805634291

Traccia SL-16 DEB in tempo reale con AllMySat

Download on the App Store